Tracking 33747 objects as of 11-Apr-2026
HD Live streaming from Space Station
objects crossing your sky now

STARLINK-1407

Track STARLINK-1407 now!
10-day predictions
STARLINK-1407 is classified as:


NORAD ID: 45703
Int'l Code: 2020-035AY
Perigee: 375.2 km
Apogee: 379.5 km
Inclination: 53.0 °
Period: 92.0 minutes
Semi major axis: 6748 km
RCS: Unknown
Launch date: June 4, 2020
Source: United States (US)
Launch site: AIR FORCE EASTERN TEST RANGE (AFETR)
Your satellite tracking list
Your tracking list is empty




NASA's NSSDC Master Catalog

Two Line Element Set (TLE):
1 45703U 20035AY  26100.53401880  .00048185  00000-0  46424-3 0  9996
2 45703  53.0300 159.8008 0003151 248.8218 111.2460 15.66055975325279
Source of the keplerian elements: AFSPC